VR2R-13 Weather Reports


time (UTC)temp
C
wind
direction
speed
KPH
gust
KPH
rain 1hr
cm
rain 24hr
cm
rain mn
cm
humidity
%
barometer
mb
20260505130242 16 48 6.4 9.7 0.00 0.00 0.00 97 914.4
20260505124744 16 35 0.0 6.4 0.00 0.00 0.00 98 914.4
20260505124144 16 18 6.4 9.7 0.00 0.00 0.00 97 914.3
20260505123742 16 35 8.0 9.7 0.00 0.00 0.00 97 914.2
20260505123543 16 22 0.0 8.0 0.00 0.00 0.00 97 914.2
20260505123242 16 43 8.0 12.9 0.00 0.00 0.00 97 914.2
20260505122943 16 41 4.8 11.3 0.00 0.00 0.00 97 914.2
20260505122743 16 46 8.0 11.3 0.00 0.00 0.00 97 914.1
20260505122343 16 55 8.0 9.7 0.00 0.00 0.00 97 914.1
20260505122242 16 40 8.0 9.7 0.00 0.00 0.00 97 914.1
20260505121744 16 51 3.2 8.0 0.00 0.00 0.00 97 914.1
20260505121742 16 53 3.2 8.0 0.00 0.00 0.00 97 914.1
20260505121242 16 43 8.0 11.3 0.00 0.00 0.00 97 914.1
20260505121143 16 34 8.0 11.3 0.00 0.00 0.00 97 914.0
20260505120742 16 61 8.0 8.0 0.00 0.00 0.00 97 914.1
20260505120543 16 62 6.4 8.0 0.00 0.00 0.00 97 914.1
20260505115742 16 31 0.0 1.6 0.00 0.00 0.00 97 914.1
20260505115343 17 59 4.8 4.8 0.03 0.03 0.00 97 914.0
20260505115242 17 49 4.8 4.8 0.03 0.03 0.00 97 914.0
20260505114742 16 28 0.0 1.6 0.00 0.00 0.00 98 914.0
20260505114242 16 2 0.0 0.0 0.00 0.00 0.00 98 914.0
20260505114145 16 10 0.0 0.0 0.00 0.00 0.00 97 914.0
20260505113742 17 19 3.2 4.8 0.00 0.00 0.00 97 914.0
20260505113543 16 49 0.0 3.2 0.00 0.00 0.00 98 913.9
20260505113242 17 56 0.0 4.8 0.00 0.00 0.00 98 913.9
20260505112943 17 48 1.6 3.2 0.00 0.00 0.00 97 913.9
20260505112741 16 3 1.6 3.2 0.00 0.00 0.00 97 913.9
20260505112242 16 41 4.8 6.4 0.00 0.00 0.00 97 913.8
20260505111743 16 41 1.6 6.4 0.00 0.00 0.00 98 913.7
20260505111741 16 37 1.6 6.4 0.00 0.00 0.00 98 913.8
20260505111242 16 35 4.8 4.8 0.00 0.00 0.00 98 913.7
20260505111143 16 38 4.8 4.8 0.00 0.00 0.00 98 913.7
20260505110741 16 46 1.6 6.4 0.00 0.00 0.00 98 913.7
20260505110543 16 63 0.0 6.4 0.00 0.00 0.00 98 913.7
20260505110241 16 61 6.4 8.0 0.00 0.00 0.00 97 913.7
20260505101743 16 60 6.4 8.0 0.03 0.03 0.00 97 913.5
20260505101741 16 57 6.4 8.0 0.03 0.03 0.00 97 913.5
20260505101241 16 58 1.6 6.4 0.00 0.00 0.00 97 913.5
20260505101142 16 66 0.0 4.8 0.00 0.00 0.00 98 913.5
20260505100741 16 91 1.6 4.8 0.00 0.00 0.00 97 913.5
20260505100542 16 60 3.2 4.8 0.00 0.00 0.00 97 913.5
20260505100241 16 48 0.0 4.8 0.00 0.00 0.00 97 913.4
20260505095942 16 63 4.8 6.4 0.00 0.00 0.00 97 913.4
20260505095741 16 66 4.8 6.4 0.00 0.00 0.00 97 913.4
20260505095342 16 69 1.6 8.0 0.00 0.00 0.00 97 913.4
20260505094743 16 56 8.0 9.7 0.00 0.00 0.00 97 913.3
20260505094741 16 54 8.0 9.7 0.00 0.00 0.00 97 913.3
20260505094142 16 43 6.4 8.0 0.00 0.00 0.00 97 913.3
20260505093741 16 60 0.0 8.0 0.00 0.00 0.00 97 913.2
20260505093542 17 52 8.0 11.3 0.00 0.00 0.00 97 913.3
20260505093241 17 77 1.6 9.7 0.00 0.00 0.00 97 913.3
20260505092942 17 62 1.6 6.4 0.00 0.00 0.00 97 913.3
20260505092342 17 71 0.0 4.8 0.00 0.00 0.00 98 913.3
20260505092241 17 71 3.2 4.8 0.00 0.00 0.00 97 913.3
20260505091745 17 56 0.0 0.0 0.00 0.00 0.00 97 913.2
20260505091240 17 69 0.0 4.8 0.00 0.00 0.00 97 913.2
20260505091142 17 57 1.6 6.4 0.00 0.00 0.00 97 913.3
20260505090740 17 38 0.0 3.2 0.00 0.00 0.00 97 913.3
20260505090542 17 64 3.2 4.8 0.00 0.00 0.00 97 913.3
20260505090240 17 48 4.8 4.8 0.00 0.00 0.00 97 913.2
20260505085943 17 46 0.0 0.0 0.00 0.00 0.00 97 913.2
20260505085740 17 49 4.8 6.4 0.00 0.00 0.00 97 913.2
20260505085342 17 49 3.2 4.8 0.00 0.00 0.00 97 913.2
20260505085240 17 45 1.6 4.8 0.00 0.00 0.00 97 913.3
20260505084742 17 45 3.2 4.8 0.00 0.00 0.00 97 913.3
20260505084740 17 51 3.2 4.8 0.00 0.00 0.00 97 913.3
20260505084241 17 63 3.2 6.4 0.00 0.00 0.00 97 913.3
20260505084141 17 105 3.2 6.4 0.00 0.00 0.00 97 913.4
20260505083740 17 90 3.2 6.4 0.00 0.00 0.00 97 913.4
20260505083542 18 138 0.0 3.2 0.00 0.00 0.00 98 913.4
20260505083240 17 175 0.0 1.6 0.00 0.00 0.00 97 913.4
20260505082943 18 114 0.0 1.6 0.00 0.00 0.00 97 913.4
20260505082740 18 148 0.0 3.2 0.00 0.00 0.00 97 913.4
20260505082341 18 167 0.0 0.0 0.00 0.00 0.00 97 913.3
20260505082240 18 97 0.0 1.6 0.00 0.00 0.00 97 913.3
20260505081742 18 66 1.6 3.2 0.00 0.00 0.00 98 913.3
20260505081740 18 66 1.6 3.2 0.00 0.00 0.00 98 913.3
20260505081240 17 55 3.2 4.8 0.00 0.00 0.00 97 913.3
20260505081141 17 61 1.6 4.8 0.00 0.00 0.00 97 913.4
20260505080740 18 73 1.6 3.2 0.00 0.00 0.00 97 913.4
20260505080541 18 80 0.0 1.6 0.00 0.00 0.00 98 913.4
20260505080240 18 89 0.0 0.0 0.00 0.00 0.00 98 913.4
20260505075941 18 113 0.0 0.0 0.00 0.00 0.00 98 913.4
20260505075740 18 226 0.0 0.0 0.00 0.00 0.00 98 913.4
20260505075341 18 204 1.6 4.8 0.00 0.00 0.00 98 913.4
20260505075240 18 187 0.0 4.8 0.00 0.00 0.00 98 913.4
20260505074742 18 228 0.0 0.0 0.00 0.00 0.00 98 913.4
20260505074740 18 227 0.0 0.0 0.00 0.00 0.00 98 913.4
20260505074240 18 165 0.0 1.6 0.00 0.00 0.00 98 913.5
20260505073740 18 115 0.0 1.6 0.00 0.00 0.00 97 913.5
20260505073541 18 129 0.0 3.2 0.00 0.00 0.00 98 913.5
20260505073240 18 200 0.0 4.8 0.00 0.00 0.00 97 913.6
20260505072740 18 209 0.0 0.0 0.00 0.00 0.00 97 913.8
20260505072240 18 91 0.0 3.2 0.00 0.00 0.00 97 913.8
20260505071741 18 116 0.0 3.2 0.00 0.00 0.00 97 913.8
20260505071240 18 262 0.0 3.2 0.00 0.00 0.00 97 913.9
20260505070541 18 258 1.6 8.0 0.00 0.00 0.00 97 913.8
20260505070239 18 209 1.6 6.4 0.00 0.00 0.00 98 913.8
20260505065941 18 205 0.0 1.6 0.00 0.00 0.00 97 913.8
20260505065740 18 200 4.8 8.0 0.00 0.00 0.00 97 913.8
20260505065341 18 170 1.6 6.4 0.00 0.00 0.00 97 913.9
20260505065239 18 232 3.2 6.4 0.00 0.00 0.00 97 913.9
20260505064741 18 197 4.8 8.0 0.00 0.00 0.00 97 913.9
20260505064739 18 202 4.8 8.0 0.00 0.00 0.00 97 913.9
20260505064240 18 208 0.0 0.0 0.00 0.00 0.00 98 914.0
20260505063739 18 252 0.0 4.8 0.00 0.00 0.00 97 914.1
20260505063541 18 234 0.0 4.8 0.00 0.00 0.00 97 914.1
20260505063239 18 252 0.0 8.0 0.00 0.00 0.00 97 914.2
20260505062941 19 292 0.0 8.0 0.00 0.00 0.00 98 914.2
20260505062739 19 198 1.6 8.0 0.00 0.00 0.00 98 914.2
20260505062340 18 157 0.0 6.4 0.00 0.00 0.00 98 914.3
20260505062240 18 198 0.0 6.4 0.00 0.00 0.00 98 914.3
20260505061741 18 162 0.0 3.2 0.00 0.00 0.00 98 914.3
20260505061240 18 263 0.0 1.6 0.00 0.00 0.00 97 914.3
20260505061140 18 238 0.0 1.6 0.00 0.00 0.00 97 914.4
20260505060739 18 270 0.0 4.8 0.00 0.00 0.00 97 914.4
20260505060540 18 293 0.0 8.0 0.00 0.00 0.00 98 914.3
20260505060239 18 307 1.6 8.0 0.00 0.00 0.00 98 914.3
20260505055940 18 232 3.2 8.0 0.00 0.00 0.00 98 914.3
20260505055739 18 261 3.2 6.4 0.00 0.00 0.00 98 914.4
20260505055340 18 262 4.8 8.0 0.00 0.00 0.00 98 914.4
20260505055239 18 255 3.2 8.0 0.00 0.00 0.00 98 914.4
20260505054741 18 252 3.2 9.7 0.00 0.00 0.00 98 914.4
20260505054739 18 249 3.2 9.7 0.00 0.00 0.00 98 914.4
20260505054239 18 275 3.2 8.0 0.00 0.00 0.00 98 914.5
20260505054140 18 258 3.2 8.0 0.00 0.00 0.00 98 914.5
20260505053739 18 268 3.2 6.4 0.00 0.00 0.00 98 914.6
20260505053540 18 194 3.2 6.4 0.00 0.00 0.00 98 914.7
20260505053239 17 252 3.2 8.0 0.00 0.00 0.00 98 914.7
20260505052940 18 267 4.8 8.0 0.00 0.00 0.00 98 914.7
20260505052739 17 256 3.2 6.4 0.00 0.00 0.00 98 914.7
20260505052340 18 256 1.6 6.4 0.00 0.00 0.00 98 914.8
20260505051740 17 256 4.8 9.7 0.00 0.00 0.00 98 914.9
20260505051239 18 235 4.8 9.7 0.00 0.00 0.00 98 914.9
20260505051140 18 245 3.2 9.7 0.00 0.00 0.00 98 915.0
20260505050540 18 242 4.8 9.7 0.00 0.00 0.00 98 915.1
20260505050239 18 259 3.2 6.4 0.00 0.00 0.00 98 915.0
20260505041740 17 270 6.4 12.9 0.00 0.00 0.00 97 915.4
20260505041738 17 269 6.4 12.9 0.00 0.00 0.00 97 915.4
20260505041238 17 255 4.8 12.9 0.00 0.00 0.00 98 915.5
20260505041139 17 245 6.4 12.9 0.00 0.00 0.00 98 915.6
20260505040738 17 229 4.8 9.7 0.00 0.00 0.00 98 915.7
20260505040539 17 245 6.4 9.7 0.00 0.00 0.00 97 915.7
20260505040238 17 280 4.8 8.0 0.00 0.00 0.00 97 915.7
20260505035939 17 238 3.2 8.0 0.00 0.00 0.00 98 915.7
20260505035738 17 221 3.2 8.0 0.00 0.00 0.00 98 915.7
20260505035339 17 232 4.8 8.0 0.00 0.00 0.00 98 915.8
20260505035238 17 274 3.2 6.4 0.00 0.00 0.00 98 915.8
20260505034740 17 258 4.8 8.0 0.00 0.00 0.00 98 915.8
20260505034738 17 256 4.8 8.0 0.00 0.00 0.00 98 915.8
20260505034238 17 247 3.2 6.4 0.00 0.00 0.00 98 915.8
20260505034139 17 253 0.0 3.2 0.00 0.00 0.00 98 915.8
20260505033738 17 234 1.6 6.4 0.00 0.00 0.00 98 915.8
20260505033539 17 251 4.8 8.0 0.00 0.00 0.00 98 915.9
20260505033238 17 255 4.8 9.7 0.03 0.03 0.00 98 915.9
20260505032939 17 254 6.4 9.7 0.00 0.00 0.00 98 915.9
20260505032738 17 215 8.0 11.3 0.00 0.00 0.00 98 915.9
20260505032339 17 206 6.4 9.7 0.00 0.00 0.00 98 915.9
20260505032238 17 227 3.2 9.7 0.00 0.00 0.00 98 916.0
20260505031740 17 217 4.8 8.0 0.03 0.03 0.00 98 916.1
20260505031738 17 214 4.8 8.0 0.03 0.03 0.00 98 916.0
20260505031238 17 185 4.8 8.0 0.00 0.00 0.00 98 916.1
20260505031139 17 169 1.6 8.0 0.00 0.00 0.00 98 916.1
20260505030737 16 156 0.0 3.2 0.00 0.00 0.00 98 916.0
20260505030539 16 120 3.2 4.8 0.00 0.00 0.00 98 916.0
20260505030238 16 110 6.4 12.9 0.03 0.03 0.00 98 916.1
20260505025939 16 121 6.4 9.7 0.00 0.00 0.00 97 916.1
20260505025738 15 103 1.6 9.7 0.00 0.00 0.00 97 916.1
20260505025339 15 55 4.8 11.3 0.03 0.03 0.00 97 916.1
20260505025238 15 64 4.8 11.3 0.03 0.03 0.00 97 916.1
20260505024739 16 96 6.4 11.3 0.00 0.00 0.00 97 916.1
20260505024238 16 110 1.6 8.0 0.00 0.00 0.00 97 916.1
20260505024139 15 116 0.0 1.6 0.00 0.00 0.00 98 916.1
20260505023737 15 3 0.0 3.2 0.00 0.00 0.00 97 916.1
20260505023539 15 63 0.0 6.4 0.00 0.00 0.00 97 916.2
20260505023237 15 52 4.8 8.0 0.00 0.00 0.00 97 916.2
20260505022939 15 71 3.2 8.0 0.00 0.00 0.00 97 916.1
20260505022737 15 52 4.8 11.3 0.00 0.00 0.00 97 916.1
20260505022339 15 42 6.4 11.3 0.00 0.00 0.00 97 916.1
20260505022237 15 51 6.4 11.3 0.00 0.00 0.00 97 916.1
20260505021737 15 32 6.4 11.3 0.00 0.00 0.00 97 916.1
20260505021237 15 56 8.0 12.9 0.00 0.00 0.00 97 916.0
20260505021138 15 62 8.0 12.9 0.00 0.00 0.00 97 916.1
20260505020738 15 74 9.7 14.5 0.00 0.00 0.00 97 916.0
20260505020538 15 56 6.4 14.5 0.00 0.00 0.00 97 916.0
20260505020237 15 84 11.3 14.5 0.00 0.00 0.00 98 916.0
20260505015938 15 85 3.2 12.9 0.00 0.00 0.00 97 916.0
20260505015338 15 19 6.4 9.7 0.03 0.03 0.00 97 916.0
20260505015237 15 44 8.0 9.7 0.03 0.03 0.00 97 916.0
20260505014740 15 64 1.6 9.7 0.00 0.00 0.00 97 916.0
20260505014738 15 66 1.6 9.7 0.00 0.00 0.00 97 916.0
20260505014237 15 52 6.4 11.3 0.03 0.03 0.00 97 916.0
20260505014138 15 41 6.4 11.3 0.03 0.03 0.00 97 916.0
20260505013538 15 90 8.0 11.3 0.03 0.03 0.00 97 916.0
20260505012938 15 57 8.0 9.7 0.00 0.00 0.00 97 916.0
20260505012338 15 53 8.0 16.1 0.03 0.03 0.00 97 916.0
20260505012237 15 67 8.0 16.1 0.03 0.03 0.00 97 916.0
20260505011739 15 76 12.9 16.1 0.00 0.00 0.00 97 916.0
20260505011737 15 77 12.9 16.1 0.00 0.00 0.00 97 916.0
20260505011237 15 78 4.8 14.5 0.00 0.00 0.00 97 916.0
20260505010737 15 70 14.5 19.3 0.00 0.00 0.00 97 916.0
20260505010539 15 25 0.0 0.0 0.00 0.00 0.00 97 915.9
20260505010237 15 91 0.0 12.9 0.00 0.00 0.00 97 915.9
20260505005938 15 69 1.6 14.5 0.00 0.00 0.00 97 915.8
20260505005737 15 79 12.9 17.7 0.03 0.03 0.00 97 915.7
20260505005338 15 85 14.5 17.7 0.00 0.00 0.00 97 915.8
20260505005237 15 80 12.9 17.7 0.00 0.00 0.00 97 915.7
20260505004738 15 57 12.9 17.7 0.03 0.03 0.00 97 915.7
20260505004736 15 58 12.9 17.7 0.03 0.03 0.00 97 915.7
20260505004237 15 73 14.5 17.7 0.03 0.03 0.00 97 915.7
20260505004138 15 85 6.4 17.7 0.00 0.00 0.00 97 915.6
20260505003736 15 59 14.5 22.5 0.03 0.03 0.00 97 915.6
20260505003538 15 75 16.1 19.3 0.03 0.03 0.00 97 915.6
20260505003237 15 62 9.7 19.3 0.00 0.00 0.00 97 915.5
20260505002938 15 58 0.0 16.1 0.00 0.00 0.00 97 915.4
20260505002736 15 71 14.5 17.7 0.03 0.03 0.00 97 915.5
20260505002338 15 87 14.5 19.3 0.08 0.08 0.00 97 915.4
20260505002236 15 70 14.5 19.3 0.08 0.08 0.00 97 915.4
20260505001738 15 79 12.9 19.3 0.05 0.05 0.00 97 915.4
20260505001736 15 72 12.9 19.3 0.05 0.05 0.00 97 915.4
20260505001236 15 66 8.0 12.9 0.00 0.00 0.00 97 915.4
20260505001138 15 77 1.6 12.9 0.00 0.00 0.00 97 915.4
20260505000736 15 60 12.9 16.1 0.00 0.00 0.00 97 915.3
20260505000538 15 83 12.9 16.1 0.00 0.00 0.00 97 915.3
20260504235938 15 66 9.7 12.9 0.00 0.00 0.00 97 915.3
20260504235736 15 79 9.7 12.9 0.00 0.00 0.00 97 915.4
20260504235337 15 60 0.0 9.7 0.00 0.00 0.00 97 915.3
20260504235237 15 63 11.3 17.7 0.00 0.00 0.00 97 915.3
20260504234738 15 75 12.9 16.1 0.00 0.00 0.00 97 915.1
20260504234736 15 72 12.9 16.1 0.00 0.00 0.00 97 915.1
20260504234237 15 63 6.4 17.7 0.00 0.00 0.00 97 915.1
20260504233736 15 80 12.9 19.3 0.00 0.00 0.00 97 915.1
20260504233537 15 50 14.5 19.3 0.00 0.00 0.00 97 915.1
20260504233236 15 75 16.1 19.3 0.00 0.00 0.00 97 915.1
20260504232937 15 58 12.9 19.3 0.00 0.00 0.00 97 915.0
20260504232736 15 54 12.9 19.3 0.00 0.00 0.00 97 915.0
20260504232337 15 46 8.0 17.7 0.00 0.00 0.00 97 915.0
20260504232236 15 66 0.0 16.1 0.00 0.00 0.00 97 915.0
20260504231738 15 85 16.1 17.7 0.03 0.03 0.00 97 914.9
20260504231736 15 66 16.1 17.7 0.03 0.03 0.00 97 914.9
20260504231236 15 72 12.9 17.7 0.03 0.03 0.00 97 914.9
20260504231137 15 69 12.9 19.3 0.03 0.03 0.00 97 914.9
20260504230736 15 58 14.5 19.3 0.03 0.03 0.00 97 915.0
20260504230537 15 64 12.9 19.3 0.00 0.00 0.00 97 915.0
20260504230236 15 67 6.4 19.3 0.00 0.00 0.00 97 915.0
20260504225937 15 53 12.9 17.7 0.00 0.00 0.00 97 914.9
20260504225736 15 78 12.9 17.7 0.00 0.00 0.00 97 914.9
20260504225337 15 87 12.9 17.7 0.00 0.00 0.00 97 915.0
20260504225237 15 58 11.3 14.5 0.00 0.00 0.00 97 915.0
20260504224737 15 71 11.3 14.5 0.00 0.00 0.00 97 915.0
20260504224236 14 68 11.3 14.5 0.00 0.00 0.00 97 915.0
20260504224137 14 70 11.3 14.5 0.00 0.00 0.00 97 915.0
20260504223736 14 76 6.4 14.5 0.00 0.00 0.00 97 914.9
20260504223537 14 66 14.5 17.7 0.03 0.03 0.00 97 914.9
20260504223236 14 74 14.5 17.7 0.03 0.03 0.00 97 914.8
20260504222937 14 77 14.5 17.7 0.00 0.00 0.00 97 914.8
20260504222736 14 87 12.9 17.7 0.00 0.00 0.00 97 914.7
20260504222337 14 69 9.7 17.7 0.00 0.00 0.00 97 914.7
20260504222236 14 76 1.6 17.7 0.00 0.00 0.00 97 914.7
20260504221737 14 74 16.1 22.5 0.13 0.13 0.00 97 914.7
20260504221735 14 79 16.1 22.5 0.13 0.13 0.00 97 914.7
20260504221235 14 72 16.1 27.4 0.08 0.08 0.00 97 914.7
20260504220735 14 70 20.9 27.4 0.05 0.05 0.00 97 914.6
20260504220537 14 54 20.9 27.4 0.05 0.05 0.00 97 914.5
20260504220235 14 83 19.3 25.7 0.03 0.03 0.00 97 914.6
20260504215937 14 77 16.1 25.7 0.03 0.03 0.00 97 914.7
20260504215735 14 45 16.1 25.7 0.03 0.03 0.00 97 914.7
20260504215336 14 43 16.1 22.5 0.00 0.00 0.00 97 914.7
20260504215236 14 77 14.5 20.9 0.00 0.00 0.00 97 914.8
20260504214735 14 65 16.1 19.3 0.00 0.00 0.00 97 914.8
20260504214235 14 52 14.5 25.7 0.00 0.00 0.00 97 914.8
20260504214136 14 68 14.5 25.7 0.00 0.00 0.00 97 914.7
20260504213735 14 76 16.1 25.7 0.00 0.00 0.00 97 914.6
20260504213536 14 73 17.7 25.7 0.00 0.00 0.00 97 914.6
20260504213235 14 74 19.3 24.1 0.00 0.00 0.00 97 914.5
20260504212936 14 85 19.3 24.1 0.00 0.00 0.00 97 914.4
20260504212735 14 79 6.4 24.1 0.00 0.00 0.00 97 914.4
20260504212336 14 81 22.5 32.2 0.00 0.00 0.00 97 914.3
20260504212236 14 70 24.1 32.2 0.00 0.00 0.00 97 914.3
20260504211737 14 85 22.5 30.6 0.00 0.00 0.00 97 914.2
20260504211735 14 43 22.5 30.6 0.00 0.00 0.00 97 914.3
20260504211235 14 92 22.5 30.6 0.00 0.00 0.00 97 914.2
20260504211136 14 93 20.9 30.6 0.00 0.00 0.00 97 914.3
20260504210735 14 71 22.5 30.6 0.00 0.00 0.00 97 914.3
20260504210235 14 63 19.3 24.1 0.00 0.00 0.00 97 914.3
20260504205936 15 75 19.3 24.1 0.00 0.00 0.00 97 914.4
20260504205735 15 85 19.3 24.1 0.00 0.00 0.00 97 914.4
20260504205336 15 67 16.1 24.1 0.00 0.00 0.00 97 914.5
20260504205235 15 51 16.1 24.1 0.00 0.00 0.00 97 914.5
20260504204736 15 79 16.1 24.1 0.00 0.00 0.00 97 914.5
20260504204235 15 64 16.1 24.1 0.00 0.00 0.00 97 914.5
20260504204136 15 75 17.7 24.1 0.00 0.00 0.00 97 914.5
20260504203734 15 81 19.3 27.4 0.00 0.00 0.00 97 914.5
20260504203536 15 42 19.3 27.4 0.00 0.00 0.00 97 914.4
20260504203234 15 52 17.7 27.4 0.00 0.00 0.00 97 914.5
20260504202936 15 60 20.9 29.0 0.00 0.00 0.00 97 914.5
20260504202734 15 68 20.9 29.0 0.00 0.00 0.00 97 914.5
20260504202336 15 63 20.9 29.0 0.00 0.00 0.00 97 914.5
20260504202234 15 81 22.5 29.0 0.00 0.00 0.00 97 914.5
20260504201736 15 68 24.1 32.2 0.00 0.00 0.00 97 914.4
20260504201734 15 78 24.1 32.2 0.00 0.00 0.00 97 914.3
20260504201235 15 76 25.7 33.8 0.00 0.00 0.00 97 914.3
20260504201136 15 72 22.5 33.8 0.00 0.00 0.00 97 914.2
20260504200734 15 71 27.4 33.8 0.00 0.00 0.00 97 914.2
20260504200536 15 84 24.1 37.0 0.00 0.00 0.00 97 914.1
20260504200234 15 75 25.7 37.0 0.00 0.00 0.00 97 914.1
20260504195936 15 73 25.7 37.0 0.00 0.00 0.00 97 914.1
20260504195734 15 72 27.4 37.0 0.00 0.00 0.00 97 914.0
20260504195336 15 83 22.5 32.2 0.00 0.00 0.00 97 914.0
20260504195234 15 70 22.5 29.0 0.00 0.00 0.00 97 914.2
20260504194736 15 38 22.5 29.0 0.00 0.00 0.00 97 914.2
20260504194734 15 55 22.5 29.0 0.00 0.00 0.00 97 914.2
20260504194234 15 78 20.9 29.0 0.00 0.00 0.00 97 914.3
20260504194136 15 78 22.5 29.0 0.00 0.00 0.00 97 914.3
20260504193734 15 73 24.1 30.6 0.00 0.00 0.00 97 914.3
20260504193538 15 65 24.1 30.6 0.00 0.00 0.00 97 914.2
20260504193234 15 55 22.5 30.6 0.00 0.00 0.00 97 914.3
20260504192935 15 66 20.9 32.2 0.00 0.00 0.00 97 914.3
20260504192734 15 45 20.9 32.2 0.00 0.00 0.00 97 914.4
20260504192335 15 55 24.1 32.2 0.00 0.00 0.00 97 914.3
20260504192234 15 61 25.7 32.2 0.00 0.00 0.00 97 914.3
20260504191736 15 59 24.1 32.2 0.00 0.00 0.00 97 914.2
20260504191734 15 63 24.1 32.2 0.00 0.00 0.00 97 914.2
20260504191234 15 73 25.7 29.0 0.00 0.00 0.00 97 914.3
20260504191135 15 45 25.7 29.0 0.00 0.00 0.00 97 914.3
20260504190734 15 68 24.1 33.8 0.00 0.00 0.00 97 914.3
20260504190535 15 86 27.4 33.8 0.00 0.00 0.00 97 914.2
20260504185936 15 62 29.0 37.0 0.00 0.00 0.00 97 914.3
20260504185335 15 76 29.0 38.6 0.00 0.00 0.00 97 914.2
20260504185234 15 75 27.4 38.6 0.00 0.00 0.00 97 914.3
20260504184736 15 80 25.7 38.6 0.00 0.00 0.00 97 914.4
20260504184734 15 79 25.7 38.6 0.00 0.00 0.00 97 914.4
20260504184234 15 71 29.0 38.6 0.00 0.00 0.00 97 914.4
20260504184135 15 69 29.0 37.0 0.00 0.00 0.00 97 914.4
20260504183734 15 73 27.4 38.6 0.00 0.00 0.00 97 914.3
20260504183535 15 55 30.6 38.6 0.00 0.00 0.00 97 914.4
20260504183233 15 67 29.0 38.6 0.00 0.00 0.00 97 914.4
20260504182935 15 90 32.2 38.6 0.00 0.00 0.00 97 914.5
20260504182733 15 80 30.6 40.2 0.00 0.00 0.00 97 914.6
20260504182335 15 83 32.2 40.2 0.00 0.00 0.00 97 914.3
20260504182233 15 83 30.6 41.8 0.00 0.00 0.00 97 914.4
20260504181736 15 82 33.8 41.8 0.00 0.00 0.00 97 914.2
20260504181734 15 74 33.8 41.8 0.00 0.00 0.00 97 914.2
20260504181233 15 72 33.8 41.8 0.00 0.00 0.00 97 914.6
20260504181135 15 77 35.4 41.8 0.00 0.00 0.00 97 914.4
20260504180734 15 85 32.2 41.8 0.00 0.00 0.00 97 914.8
20260504180535 15 86 32.2 40.2 0.00 0.00 0.00 97 914.7
20260504180233 15 79 29.0 40.2 0.00 0.00 0.00 97 914.8
20260504175935 15 67 30.6 40.2 0.00 0.00 0.00 97 915.1
20260504175733 15 73 29.0 38.6 0.00 0.00 0.00 97 915.0
20260504175335 15 89 27.4 33.8 0.00 0.00 0.00 97 915.0
20260504175233 15 71 27.4 33.8 0.00 0.00 0.00 97 915.2
20260504174735 15 78 24.1 35.4 0.00 0.00 0.00 97 915.3
20260504174733 15 77 24.1 35.4 0.00 0.00 0.00 97 915.4
20260504174233 15 71 24.1 35.4 0.00 0.00 0.00 97 915.4
20260504174135 15 78 25.7 37.0 0.00 0.00 0.00 97 915.4
20260504173733 15 65 22.5 45.1 0.00 0.00 0.00 97 915.4
20260504173534 15 62 24.1 45.1 0.00 0.00 0.00 97 915.3
20260504173233 15 70 29.0 45.1 0.00 0.00 0.00 97 915.4
20260504172935 15 66 29.0 38.6 0.00 0.00 0.00 97 915.1
20260504172733 15 65 27.4 38.6 0.00 0.00 0.00 97 915.2
20260504172334 15 61 30.6 38.6 0.00 0.00 0.00 97 915.3
20260504171735 15 86 29.0 33.8 0.00 0.00 0.00 97 915.4
20260504171134 15 77 29.0 38.6 0.00 0.00 0.00 97 915.5
20260504170534 15 63 27.4 37.0 0.00 0.00 0.00 97 915.6
20260504160232 15 81 33.8 43.5 0.00 0.00 0.00 97 915.7
20260504151133 16 60 33.8 41.8 0.00 0.00 0.00 97 916.2
20260504150732 16 96 29.0 37.0 0.00 0.00 0.00 97 916.1
20260504150533 16 75 8.0 37.0 0.00 0.00 0.00 97 916.2
20260504150232 16 67 24.1 43.5 0.00 0.00 0.00 97 916.1
20260504141133 16 68 37.0 46.7 0.00 0.00 0.00 97 915.8
20260504140732 16 73 35.4 51.5 0.00 0.00 0.00 97 915.9
20260504140533 16 46 35.4 51.5 0.00 0.00 0.00 97 915.8
20260504140232 16 77 32.2 45.1 0.00 0.00 0.00 97 915.6